Aspen, CO

4:52 PM MST on December 14, 2017 (GMT -0700)
Aspen-Pitkin County / Sardy Field

Weather History for KASE - September, 2014

Change the Weather History Date:

Tuesday, September 2, 2014

  Actual Average Record
Temperature  
Mean Temperature 61 °F 58 °F  
Max Temperature 80 °F 73 °F 85 °F (2017)
Min Temperature 42 °F 43 °F 35 °F (1992)
Degree Days  
Heating Degree Days 4 7  
Month to date heating degree days 12 14  
Since 1 July heating degree days 165 210  
Cooling Degree Days 0 0  
Month to date cooling degree days 0 0  
Year to date cooling degree days 56 39  
Growing Degree Days 11 (Base 50)    
Moisture  
Dew Point 33 °F    
Average Humidity 42    
Maximum Humidity 67    
Minimum Humidity 17    
Precipitation  
Precipitation 0.00 in 0.05 in 0.27 in (2016)
Month to date precipitation 0.00 0.10  
Year to date precipitation 9.24 11.56  
Sea Level Pressure  
Sea Level Pressure 29.91 in    
Wind  
Wind Speed 7 mph (SW)    
Max Wind Speed 23 mph    
Max Gust Speed 29 mph    
Visibility 10 miles    
Events      
T = Trace of Precipitation, MM = Missing Value Source: NWS Daily Summary

Daily Weather History Graph

Daily Weather History Graph

Search for Another Location

Airport or City:

Trip Planner

Search our weather history database for the weather conditions in past years. The results will help you decide how hot, cold, wet, or windy it might be!

Date:

Astronomy

Sep. 02, 2014 Rise Set
Actual Time 6:37 AM MDT 7:36 PM MDT
Civil Twilight 6:09 AM MDT 8:03 PM MDT
Nautical Twilight 5:37 AM MDT 8:36 PM MDT
Astronomical Twilight 5:03 AM MDT 9:10 PM MDT
Moon 2:21 PM MDT (9/2) No Moon Set
Length of Visible Light 13h 54m
Length of Day
12h 59m
First Quarter, 53% of the Moon is Illuminated
Sep 2
First Quarter
Sep 8
Full
Sep 15
Last Quarter
Sep 24
New
Oct 1
First Quarter

Hourly Weather History & Observations

Time (MDT) Temp. Windchill Dew Point Humidity Pressure Visibility Wind Dir Wind Speed Gust Speed Precip Events Conditions
12:53 AM 48.0 °F - 33.1 °F 56% 29.97 in 10.0 mi SSW 10.4 mph - N/A   Clear
1:53 AM 46.0 °F 41.4 °F 33.1 °F 61% 29.96 in 10.0 mi SSW 9.2 mph - N/A   Clear
2:53 AM 44.1 °F 40.8 °F 33.1 °F 65% 29.96 in 10.0 mi SSW 5.8 mph - N/A   Clear
3:53 AM 45.0 °F 41.2 °F 30.9 °F 58% 29.94 in 10.0 mi SSW 6.9 mph - N/A   Clear
4:53 AM 44.1 °F 39.0 °F 30.9 °F 60% 29.95 in 10.0 mi SSW 9.2 mph - N/A   Clear
5:53 AM 43.0 °F 38.8 °F 32.0 °F 65% 29.97 in 10.0 mi SSW 6.9 mph - N/A   Clear
6:53 AM 43.0 °F 36.8 °F 32.0 °F 65% 29.99 in 10.0 mi SSW 11.5 mph - N/A   Clear
7:53 AM 50.0 °F - 34.0 °F 54% 29.99 in 10.0 mi Variable 3.5 mph - N/A   Clear
8:53 AM 57.0 °F - 34.0 °F 42% 29.99 in 10.0 mi Calm Calm - N/A   Clear
9:53 AM 64.9 °F - 34.0 °F 32% 29.96 in 10.0 mi Calm Calm - N/A   Clear
10:53 AM 72.0 °F - 32.0 °F 23% 29.94 in 10.0 mi North 8.1 mph - N/A   Clear
11:53 AM 75.0 °F - 32.0 °F 21% 29.91 in 10.0 mi NNE 10.4 mph - N/A   Clear
12:53 PM 77.0 °F - 30.9 °F 19% 29.89 in 10.0 mi NNW 9.2 mph 18.4 mph N/A   Scattered Clouds
1:53 PM 79.0 °F - 34.0 °F 20% 29.88 in 10.0 mi North 13.8 mph 21.9 mph N/A   Scattered Clouds
2:53 PM 78.1 °F - 32.0 °F 19% 29.87 in 10.0 mi NNW 13.8 mph 23.0 mph N/A   Partly Cloudy
3:53 PM 77.0 °F - 32.0 °F 19% 29.84 in 10.0 mi North 10.4 mph 28.8 mph N/A   Clear
4:53 PM 78.1 °F - 30.9 °F 18% 29.83 in 10.0 mi Variable 4.6 mph 17.3 mph N/A   Partly Cloudy
5:53 PM 75.9 °F - 30.0 °F 19% 29.83 in 10.0 mi Variable 4.6 mph - N/A   Clear
6:53 PM 70.0 °F - 35.1 °F 28% 29.86 in 10.0 mi Calm Calm - N/A   Scattered Clouds
7:53 PM 64.0 °F - 36.0 °F 35% 29.87 in 10.0 mi South 8.1 mph - N/A   Mostly Cloudy
9:53 PM 57.0 °F - 35.1 °F 44% 29.86 in 10.0 mi SSW 10.4 mph - N/A   Scattered Clouds
10:53 PM 55.9 °F - 35.1 °F 45% 29.83 in 10.0 mi SSW 9.2 mph - N/A   Partly Cloudy
11:53 PM 55.9 °F - 35.1 °F 45% 29.82 in 10.0 mi SSW 8.1 mph - N/A   Mostly Cloudy